Location: Eastlake (historical)
(39.0077°N, 122.6678°W)
Time: 05:24:34
(UTC+00:00)

ALOS - Pass Details

Date: 25 November 2020
Orbit: 682 x 686 km, 97.9° (Epoch: 24 January)

Event Time Altitude Azimuth Distance (km) Brightness Sun altitude
Rises 12:48:36 0° 11° (N) 3,060 5.7 -26.1°
Reaches altitude 10° 12:50:51 10° 10° (N) 2,140 4.8 -25.7°
Enters shadow 12:54:21 50° 2° (N) 869 2.7 -25.0°
Exits shadow 13:00:19 - 198° (SSW) 2,179 4.8 -23.9°
Sets 13:02:25 0° 197° (SSW) 3,034 5.5 -23.5°
